| time (UTC) | temp F | wind direction | speed MPH | gust MPH | rain 1hr in | rain 24hr in | rain mn in | humidity % | barometer mb |
| 20260506160905 | 67 | 220 | 3.0 | 9.0 | 0.00 | 0.17 | 0.17 | 85 | 1013.2 |
| 20260506160404 | 67 | 284 | 2.0 | 3.0 | 0.01 | 0.17 | 0.17 | 85 | 1013.2 |
| 20260506155903 | 67 | 110 | 2.0 | 6.0 | 0.03 | 0.17 | 0.17 | 85 | 1013.4 |
| 20260506155404 | 67 | 231 | 2.0 | 5.0 | 0.04 | 0.17 | 0.17 | 85 | 1013.4 |
| 20260506154904 | 66 | 140 | 3.0 | 8.0 | 0.06 | 0.17 | 0.17 | 85 | 1013.4 |
| 20260506153904 | 67 | 239 | 1.0 | 5.0 | 0.09 | 0.17 | 0.17 | 86 | 1013.4 |
| 20260506152903 | 66 | 260 | 2.0 | 3.0 | 0.12 | 0.17 | 0.17 | 87 | 1012.6 |
| 20260506152405 | 66 | 5 | 0.0 | 0.0 | 0.12 | 0.17 | 0.17 | 86 | 1013.1 |
| 20260506151903 | 66 | 5 | 1.0 | 3.0 | 0.13 | 0.17 | 0.17 | 86 | 1013.1 |
| 20260506151403 | 66 | 340 | 0.0 | 2.0 | 0.13 | 0.17 | 0.17 | 86 | 1013.9 |
| 20260506150905 | 65 | 227 | 2.0 | 7.0 | 0.14 | 0.17 | 0.17 | 85 | 1013.9 |
| 20260506150404 | 65 | 235 | 2.0 | 12.0 | 0.13 | 0.16 | 0.16 | 85 | 1013.6 |
| 20260506145903 | 65 | 218 | 3.0 | 7.0 | 0.11 | 0.14 | 0.14 | 85 | 1014.5 |
| 20260506145405 | 65 | 235 | 3.0 | 6.0 | 0.10 | 0.13 | 0.13 | 84 | 1014.7 |
| 20260506144903 | 65 | 159 | 3.0 | 7.0 | 0.08 | 0.11 | 0.11 | 84 | 1014.7 |
| 20260506143904 | 65 | 233 | 1.0 | 7.0 | 0.07 | 0.08 | 0.08 | 84 | 1014.2 |
| 20260506143403 | 65 | 236 | 6.0 | 12.0 | 0.06 | 0.07 | 0.07 | 84 | 1014.2 |
| 20260506142904 | 65 | 250 | 1.0 | 3.0 | 0.04 | 0.05 | 0.05 | 84 | 1013.8 |
| 20260506142406 | 65 | 179 | 1.0 | 2.0 | 0.05 | 0.05 | 0.05 | 84 | 1013.8 |
| 20260506141903 | 65 | 179 | 1.0 | 2.0 | 0.04 | 0.04 | 0.04 | 84 | 1013.8 |
| 20260506140904 | 65 | 257 | 1.0 | 3.0 | 0.03 | 0.03 | 0.03 | 83 | 1013.5 |
| 20260506135905 | 65 | 276 | 1.0 | 2.0 | 0.03 | 0.03 | 0.03 | 83 | 1013.5 |
| 20260506134904 | 65 | 193 | 0.0 | 2.0 | 0.03 | 0.03 | 0.03 | 82 | 1013.5 |
| 20260506134405 | 65 | 269 | 0.0 | 1.0 | 0.03 | 0.03 | 0.03 | 82 | 1013.4 |
| 20260506133903 | 65 | 269 | 0.0 | 1.0 | 0.01 | 0.01 | 0.01 | 80 | 1013.4 |
| 20260506133405 | 65 | 269 | 0.0 | 1.0 | 0.01 | 0.01 | 0.01 | 80 | 1013.4 |
| 20260506132904 | 66 | 269 | 0.0 | 3.0 | 0.01 | 0.01 | 0.01 | 78 | 1013.2 |
| 20260506132404 | 66 | 194 | 1.0 | 2.0 | 0.00 | 0.00 | 0.00 | 76 | 1013.2 |
| 20260506131903 | 66 | 194 | 0.0 | 2.0 | 0.00 | 0.00 | 0.00 | 76 | 1013.2 |
| 20260506131405 | 66 | 185 | 1.0 | 3.0 | 0.00 | 0.00 | 0.00 | 75 | 1012.8 |
| 20260506130903 | 66 | 230 | 0.0 | 1.0 | 0.00 | 0.00 | 0.00 | 74 | 1012.8 |
| 20260506130404 | 66 | 257 | 0.0 | 2.0 | 0.00 | 0.00 | 0.00 | 73 | 1012.8 |
| 20260506125404 | 66 | 156 | 2.0 | 5.0 | 0.00 | 0.00 | 0.00 | 73 | 1012.8 |
| 20260506123904 | 66 | 232 | 4.0 | 7.0 | 0.00 | 0.00 | 0.00 | 72 | 1012.6 |
| 20260506123405 | 66 | 166 | 2.0 | 5.0 | 0.00 | 0.00 | 0.00 | 72 | 1012.2 |
| 20260506122903 | 66 | 236 | 2.0 | 3.0 | 0.00 | 0.00 | 0.00 | 72 | 1012.2 |
| 20260506122404 | 66 | 227 | 2.0 | 5.0 | 0.00 | 0.00 | 0.00 | 72 | 1012.2 |
| 20260506121905 | 66 | 225 | 2.0 | 6.0 | 0.00 | 0.00 | 0.00 | 72 | 1012.2 |
| 20260506121404 | 66 | 232 | 2.0 | 5.0 | 0.00 | 0.00 | 0.00 | 72 | 1012.3 |
| 20260506120903 | 66 | 175 | 3.0 | 8.0 | 0.00 | 0.00 | 0.00 | 72 | 1012.3 |
| 20260506115904 | 66 | 250 | 1.0 | 5.0 | 0.00 | 0.00 | 0.00 | 72 | 1012.0 |
| 20260506115404 | 66 | 227 | 3.0 | 5.0 | 0.00 | 0.00 | 0.00 | 72 | 1012.0 |
| 20260506114904 | 66 | 239 | 2.0 | 7.0 | 0.00 | 0.00 | 0.00 | 72 | 1012.0 |
| 20260506114405 | 66 | 211 | 2.0 | 7.0 | 0.00 | 0.00 | 0.00 | 72 | 1012.2 |
| 20260506113904 | 66 | 214 | 2.0 | 5.0 | 0.00 | 0.00 | 0.00 | 71 | 1012.2 |
| 20260506113404 | 66 | 242 | 2.0 | 3.0 | 0.00 | 0.00 | 0.00 | 71 | 1012.3 |
| 20260506112905 | 66 | 247 | 2.0 | 3.0 | 0.00 | 0.00 | 0.00 | 71 | 1012.0 |
| 20260506112404 | 66 | 263 | 1.0 | 3.0 | 0.00 | 0.00 | 0.00 | 70 | 1012.0 |
| 20260506111904 | 66 | 221 | 3.0 | 5.0 | 0.00 | 0.00 | 0.00 | 70 | 1012.0 |
| 20260506111404 | 66 | 186 | 3.0 | 7.0 | 0.00 | 0.00 | 0.00 | 70 | 1011.4 |
| 20260506110904 | 66 | 240 | 3.0 | 7.0 | 0.00 | 0.00 | 0.00 | 70 | 1011.4 |
| 20260506110404 | 66 | 219 | 3.0 | 6.0 | 0.00 | 0.00 | 0.00 | 70 | 1011.4 |
| 20260506105404 | 67 | 188 | 3.0 | 7.0 | 0.00 | 0.00 | 0.00 | 69 | 1011.4 |
| 20260506104904 | 67 | 237 | 2.0 | 3.0 | 0.00 | 0.00 | 0.00 | 69 | 1011.4 |
| 20260506103905 | 67 | 216 | 2.0 | 3.0 | 0.00 | 0.00 | 0.00 | 69 | 1011.2 |
| 20260506103404 | 67 | 248 | 2.0 | 3.0 | 0.00 | 0.00 | 0.00 | 69 | 1011.2 |
| 20260506102904 | 67 | 200 | 1.0 | 3.0 | 0.00 | 0.00 | 0.00 | 69 | 1011.4 |
| 20260506102405 | 67 | 147 | 1.0 | 3.0 | 0.00 | 0.00 | 0.00 | 69 | 1011.4 |
| 20260506101903 | 67 | 249 | 2.0 | 3.0 | 0.00 | 0.00 | 0.00 | 69 | 1011.4 |
| 20260506100905 | 67 | 167 | 0.0 | 2.0 | 0.00 | 0.00 | 0.00 | 68 | 1011.7 |
| 20260506100404 | 67 | 232 | 1.0 | 2.0 | 0.00 | 0.00 | 0.00 | 68 | 1011.7 |
| 20260506095904 | 67 | 232 | 0.0 | 1.0 | 0.00 | 0.00 | 0.00 | 68 | 1011.4 |
| 20260506095404 | 67 | 232 | 1.0 | 2.0 | 0.00 | 0.00 | 0.00 | 68 | 1011.4 |
| 20260506094904 | 67 | 225 | 1.0 | 3.0 | 0.00 | 0.00 | 0.00 | 67 | 1011.4 |
| 20260506094404 | 67 | 186 | 1.0 | 3.0 | 0.00 | 0.00 | 0.00 | 67 | 1010.8 |
| 20260506093905 | 67 | 265 | 0.0 | 3.0 | 0.00 | 0.00 | 0.00 | 67 | 1010.8 |
| 20260506093404 | 67 | 240 | 1.0 | 2.0 | 0.00 | 0.00 | 0.00 | 67 | 1010.8 |
| 20260506092405 | 67 | 190 | 1.0 | 2.0 | 0.00 | 0.00 | 0.00 | 66 | 1010.8 |
| 20260506091904 | 67 | 230 | 2.0 | 3.0 | 0.00 | 0.00 | 0.00 | 65 | 1010.8 |
| 20260506091404 | 67 | 225 | 1.0 | 3.0 | 0.00 | 0.00 | 0.00 | 65 | 1010.9 |
| 20260506090905 | 67 | 165 | 2.0 | 3.0 | 0.00 | 0.00 | 0.00 | 65 | 1010.9 |
| 20260506090404 | 67 | 211 | 2.0 | 3.0 | 0.00 | 0.00 | 0.00 | 65 | 1010.9 |
| 20260506085904 | 67 | 179 | 2.0 | 5.0 | 0.00 | 0.00 | 0.00 | 64 | 1010.8 |
| 20260506085405 | 67 | 218 | 2.0 | 3.0 | 0.00 | 0.00 | 0.00 | 64 | 1010.8 |
| 20260506084905 | 67 | 238 | 1.0 | 2.0 | 0.00 | 0.00 | 0.00 | 64 | 1010.8 |
| 20260506084404 | 67 | 250 | 2.0 | 5.0 | 0.00 | 0.00 | 0.00 | 64 | 1010.8 |
| 20260506083905 | 67 | 232 | 2.0 | 3.0 | 0.00 | 0.00 | 0.00 | 64 | 1010.8 |
| 20260506083404 | 67 | 243 | 1.0 | 3.0 | 0.00 | 0.00 | 0.00 | 63 | 1010.8 |
| 20260506082904 | 67 | 252 | 1.0 | 5.0 | 0.00 | 0.00 | 0.00 | 63 | 1010.9 |
| 20260506082405 | 67 | 228 | 2.0 | 8.0 | 0.00 | 0.00 | 0.00 | 62 | 1010.9 |
| 20260506081904 | 67 | 206 | 2.0 | 6.0 | 0.00 | 0.00 | 0.00 | 62 | 1010.9 |
| 20260506081404 | 67 | 216 | 2.0 | 5.0 | 0.00 | 0.00 | 0.00 | 62 | 1010.7 |
| 20260506080905 | 67 | 226 | 4.0 | 8.0 | 0.00 | 0.00 | 0.00 | 61 | 1010.7 |
| 20260506080404 | 67 | 234 | 3.0 | 7.0 | 0.00 | 0.00 | 0.00 | 61 | 1010.7 |
| 20260506073404 | 67 | 200 | 3.0 | 6.0 | 0.00 | 0.00 | 0.00 | 59 | 1010.6 |
| 20260506072904 | 67 | 214 | 3.0 | 10.0 | 0.00 | 0.00 | 0.00 | 59 | 1010.6 |
| 20260506072405 | 67 | 214 | 5.0 | 10.0 | 0.00 | 0.00 | 0.00 | 59 | 1010.6 |
| 20260506071904 | 68 | 241 | 3.0 | 8.0 | 0.00 | 0.00 | 0.00 | 58 | 1010.6 |
| 20260506071404 | 68 | 224 | 3.0 | 8.0 | 0.00 | 0.00 | 0.00 | 58 | 1010.8 |
| 20260506070404 | 68 | 193 | 3.0 | 5.0 | 0.00 | 0.00 | 0.00 | 57 | 1010.8 |
| 20260506062402 | 68 | 177 | 1.0 | 3.0 | 0.00 | 0.00 | 0.00 | 55 | 1011.4 |
| 20260506061903 | 68 | 200 | 1.0 | 6.0 | 0.00 | 0.00 | 0.00 | 54 | 1011.4 |
| 20260506061402 | 69 | 136 | 3.0 | 6.0 | 0.00 | 0.00 | 0.00 | 54 | 1011.4 |
| 20260506060902 | 69 | 160 | 3.0 | 5.0 | 0.00 | 0.00 | 0.00 | 53 | 1011.4 |
| 20260506060404 | 69 | 219 | 2.0 | 7.0 | 0.00 | 0.00 | 0.00 | 53 | 1011.4 |
| 20260506051403 | 70 | 171 | 2.0 | 5.0 | 0.00 | 0.00 | 0.00 | 51 | 1011.8 |
| 20260506050903 | 70 | 225 | 2.0 | 5.0 | 0.00 | 0.00 | 0.00 | 51 | 1011.8 |
| 20260506050404 | 70 | 220 | 2.0 | 6.0 | 0.00 | 0.00 | 0.00 | 51 | 1011.8 |
| 20260506044903 | 70 | 173 | 1.0 | 3.0 | 0.00 | 0.00 | 0.00 | 51 | 1011.7 |
| 20260506044403 | 70 | 143 | 1.0 | 2.0 | 0.00 | 0.00 | 0.00 | 51 | 1011.7 |
| 20260506043403 | 70 | 215 | 2.0 | 3.0 | 0.00 | 0.00 | 0.00 | 50 | 1011.7 |
| 20260506042903 | 70 | 181 | 1.0 | 3.0 | 0.00 | 0.00 | 0.00 | 50 | 1011.7 |
| 20260506041403 | 70 | 217 | 1.0 | 3.0 | 0.00 | 0.00 | 0.00 | 50 | 1011.9 |
| 20260506040403 | 70 | 226 | 2.0 | 3.0 | 0.00 | 0.00 | 0.00 | 50 | 1011.9 |
| 20260506035902 | 70 | 215 | 2.0 | 3.0 | 0.00 | 0.00 | 0.00 | 49 | 1011.8 |
| 20260506034904 | 70 | 172 | 1.0 | 3.0 | 0.00 | 0.00 | 0.00 | 49 | 1011.8 |
| 20260506034402 | 71 | 232 | 2.0 | 3.0 | 0.00 | 0.00 | 0.00 | 49 | 1011.8 |
| 20260506033903 | 71 | 222 | 1.0 | 3.0 | 0.00 | 0.00 | 0.00 | 49 | 1011.8 |
| 20260506033404 | 71 | 234 | 2.0 | 3.0 | 0.00 | 0.00 | 0.00 | 48 | 1011.8 |
| 20260506032903 | 71 | 198 | 2.0 | 3.0 | 0.00 | 0.00 | 0.00 | 47 | 1011.6 |
| 20260506032403 | 71 | 191 | 2.0 | 5.0 | 0.00 | 0.00 | 0.00 | 47 | 1011.6 |
| 20260506031402 | 71 | 189 | 0.0 | 2.0 | 0.00 | 0.00 | 0.00 | 47 | 1012.0 |
| 20260506030903 | 71 | 199 | 1.0 | 3.0 | 0.00 | 0.00 | 0.00 | 47 | 1012.0 |
| 20260506030404 | 71 | 171 | 0.0 | 2.0 | 0.00 | 0.00 | 0.00 | 47 | 1012.0 |
| 20260506025903 | 71 | 119 | 1.0 | 3.0 | 0.00 | 0.00 | 0.00 | 46 | 1012.0 |
| 20260506025402 | 71 | 247 | 2.0 | 5.0 | 0.00 | 0.00 | 0.00 | 46 | 1012.1 |
| 20260506024903 | 71 | 200 | 2.0 | 5.0 | 0.00 | 0.00 | 0.00 | 46 | 1012.1 |
| 20260506023903 | 71 | 172 | 3.0 | 6.0 | 0.00 | 0.00 | 0.00 | 45 | 1011.9 |
| 20260506023403 | 71 | 222 | 2.0 | 3.0 | 0.00 | 0.00 | 0.00 | 45 | 1011.9 |
| 20260506022403 | 72 | 244 | 1.0 | 3.0 | 0.00 | 0.00 | 0.00 | 45 | 1011.9 |
| 20260506021904 | 72 | 235 | 2.0 | 5.0 | 0.00 | 0.00 | 0.00 | 44 | 1011.8 |
| 20260506021403 | 72 | 146 | 1.0 | 2.0 | 0.00 | 0.00 | 0.00 | 44 | 1011.7 |
| 20260506020903 | 72 | 144 | 2.0 | 5.0 | 0.00 | 0.00 | 0.00 | 44 | 1011.7 |
| 20260506015902 | 72 | 186 | 2.0 | 5.0 | 0.00 | 0.00 | 0.00 | 43 | 1011.6 |
| 20260506015403 | 72 | 157 | 2.0 | 3.0 | 0.00 | 0.00 | 0.00 | 43 | 1011.6 |
| 20260506014904 | 72 | 164 | 2.0 | 6.0 | 0.00 | 0.00 | 0.00 | 43 | 1011.6 |
| 20260506014403 | 72 | 218 | 3.0 | 6.0 | 0.00 | 0.00 | 0.00 | 42 | 1011.4 |
| 20260506013903 | 72 | 187 | 2.0 | 5.0 | 0.00 | 0.00 | 0.00 | 42 | 1011.4 |
| 20260506013403 | 73 | 223 | 2.0 | 7.0 | 0.00 | 0.00 | 0.00 | 42 | 1011.4 |
| 20260506012903 | 73 | 180 | 2.0 | 3.0 | 0.00 | 0.00 | 0.00 | 42 | 1011.5 |
| 20260506012402 | 73 | 167 | 1.0 | 3.0 | 0.00 | 0.00 | 0.00 | 42 | 1011.5 |
| 20260506010903 | 73 | 192 | 2.0 | 3.0 | 0.00 | 0.00 | 0.00 | 41 | 1011.3 |
| 20260506010404 | 73 | 193 | 2.0 | 6.0 | 0.00 | 0.00 | 0.00 | 41 | 1011.4 |
| 20260506005903 | 73 | 207 | 2.0 | 6.0 | 0.00 | 0.00 | 0.00 | 41 | 1011.4 |
| 20260506005403 | 73 | 248 | 1.0 | 5.0 | 0.00 | 0.00 | 0.00 | 41 | 1011.4 |
| 20260506004904 | 73 | 217 | 2.0 | 5.0 | 0.00 | 0.00 | 0.00 | 41 | 1011.4 |
| 20260506004403 | 73 | 172 | 2.0 | 6.0 | 0.00 | 0.00 | 0.00 | 41 | 1011.3 |
| 20260506002903 | 73 | 234 | 2.0 | 6.0 | 0.00 | 0.00 | 0.00 | 41 | 1011.3 |
| 20260506002403 | 73 | 219 | 3.0 | 5.0 | 0.00 | 0.00 | 0.00 | 41 | 1011.2 |
| 20260506001904 | 73 | 232 | 2.0 | 5.0 | 0.00 | 0.00 | 0.00 | 41 | 1011.2 |
| 20260506001403 | 73 | 203 | 2.0 | 5.0 | 0.00 | 0.00 | 0.00 | 41 | 1011.1 |
| 20260506000903 | 73 | 234 | 2.0 | 6.0 | 0.00 | 0.00 | 0.00 | 40 | 1011.1 |
| 20260506000404 | 73 | 240 | 2.0 | 5.0 | 0.00 | 0.00 | 0.00 | 40 | 1011.1 |
| 20260505235403 | 74 | 194 | 3.0 | 7.0 | 0.00 | 0.00 | 0.00 | 40 | 1011.4 |
| 20260505234904 | 74 | 207 | 3.0 | 6.0 | 0.00 | 0.00 | 0.00 | 40 | 1011.4 |
| 20260505234403 | 74 | 237 | 3.0 | 7.0 | 0.00 | 0.00 | 0.00 | 40 | 1011.4 |
| 20260505232903 | 74 | 236 | 4.0 | 10.0 | 0.00 | 0.00 | 0.00 | 38 | 1011.3 |
| 20260505232403 | 75 | 223 | 5.0 | 9.0 | 0.00 | 0.00 | 0.00 | 37 | 1011.3 |
| 20260505231904 | 75 | 229 | 5.0 | 10.0 | 0.00 | 0.00 | 0.00 | 38 | 1011.3 |
| 20260505231403 | 75 | 245 | 5.0 | 9.0 | 0.00 | 0.00 | 0.00 | 38 | 1011.3 |
| 20260505225402 | 75 | 242 | 3.0 | 9.0 | 0.00 | 0.00 | 0.00 | 37 | 1011.3 |
| 20260505224904 | 75 | 201 | 5.0 | 12.0 | 0.00 | 0.00 | 0.00 | 36 | 1011.3 |
| 20260505224403 | 75 | 143 | 6.0 | 9.0 | 0.00 | 0.00 | 0.00 | 36 | 1011.2 |
| 20260505223404 | 76 | 152 | 5.0 | 9.0 | 0.00 | 0.00 | 0.00 | 36 | 1011.3 |
| 20260505222902 | 75 | 169 | 3.0 | 8.0 | 0.00 | 0.00 | 0.00 | 35 | 1011.4 |
| 20260505222403 | 76 | 238 | 3.0 | 8.0 | 0.00 | 0.00 | 0.00 | 36 | 1011.4 |
| 20260505221904 | 76 | 201 | 2.0 | 7.0 | 0.00 | 0.00 | 0.00 | 36 | 1011.4 |
| 20260505221403 | 75 | 236 | 3.0 | 6.0 | 0.00 | 0.00 | 0.00 | 35 | 1011.4 |
| 20260505220903 | 75 | 187 | 3.0 | 7.0 | 0.00 | 0.00 | 0.00 | 36 | 1011.4 |
| 20260505214904 | 75 | 209 | 2.0 | 5.0 | 0.00 | 0.00 | 0.00 | 36 | 1012.0 |
| 20260505214403 | 76 | 234 | 2.0 | 7.0 | 0.00 | 0.00 | 0.00 | 36 | 1011.9 |
| 20260505213903 | 76 | 239 | 4.0 | 8.0 | 0.00 | 0.00 | 0.00 | 34 | 1011.9 |
| 20260505213404 | 76 | 207 | 3.0 | 6.0 | 0.00 | 0.00 | 0.00 | 35 | 1011.9 |
| 20260505212903 | 76 | 218 | 3.0 | 8.0 | 0.00 | 0.00 | 0.00 | 35 | 1011.9 |
| 20260505212403 | 76 | 236 | 2.0 | 3.0 | 0.00 | 0.00 | 0.00 | 34 | 1011.9 |
| 20260505211904 | 76 | 246 | 4.0 | 7.0 | 0.00 | 0.00 | 0.00 | 33 | 1011.9 |
| 20260505211403 | 76 | 250 | 3.0 | 3.0 | 0.00 | 0.00 | 0.00 | 32 | 1011.7 |
| 20260505210904 | 76 | 202 | 2.0 | 6.0 | 0.00 | 0.00 | 0.00 | 30 | 1011.7 |
| 20260505205404 | 77 | 226 | 5.0 | 12.0 | 0.00 | 0.00 | 0.00 | 27 | 1012.0 |
| 20260505204903 | 77 | 228 | 5.0 | 15.0 | 0.00 | 0.00 | 0.00 | 27 | 1012.0 |
| 20260505204403 | 78 | 251 | 3.0 | 8.0 | 0.00 | 0.00 | 0.00 | 27 | 1012.0 |
| 20260505203904 | 78 | 249 | 7.0 | 14.0 | 0.00 | 0.00 | 0.00 | 28 | 1012.0 |
| 20260505203403 | 78 | 229 | 3.0 | 9.0 | 0.00 | 0.00 | 0.00 | 32 | 1012.0 |
| 20260505202903 | 79 | 247 | 3.0 | 14.0 | 0.00 | 0.00 | 0.00 | 32 | 1012.3 |
| 20260505202404 | 79 | 119 | 4.0 | 14.0 | 0.00 | 0.00 | 0.00 | 30 | 1012.3 |
| 20260505201903 | 80 | 235 | 4.0 | 9.0 | 0.00 | 0.00 | 0.00 | 30 | 1012.3 |
| 20260505201403 | 79 | 186 | 7.0 | 12.0 | 0.00 | 0.00 | 0.00 | 30 | 1012.6 |
| 20260505200904 | 79 | 247 | 6.0 | 12.0 | 0.00 | 0.00 | 0.00 | 30 | 1012.6 |
| 20260505195903 | 79 | 221 | 5.0 | 10.0 | 0.00 | 0.00 | 0.00 | 27 | 1012.6 |
| 20260505195404 | 79 | 241 | 7.0 | 12.0 | 0.00 | 0.00 | 0.00 | 26 | 1012.6 |
| 20260505194903 | 79 | 233 | 5.0 | 14.0 | 0.00 | 0.00 | 0.00 | 27 | 1012.6 |
| 20260505194404 | 79 | 190 | 5.0 | 12.0 | 0.00 | 0.00 | 0.00 | 31 | 1012.6 |
| 20260505193906 | 79 | 228 | 6.0 | 12.0 | 0.00 | 0.00 | 0.00 | 30 | 1012.6 |
| 20260505193403 | 79 | 170 | 6.0 | 16.0 | 0.00 | 0.00 | 0.00 | 31 | 1012.6 |
| 20260505192904 | 79 | 222 | 6.0 | 9.0 | 0.00 | 0.00 | 0.00 | 34 | 1012.6 |
| 20260505192404 | 78 | 130 | 7.0 | 13.0 | 0.00 | 0.00 | 0.00 | 36 | 1012.6 |
| 20260505191903 | 78 | 224 | 6.0 | 12.0 | 0.00 | 0.00 | 0.00 | 35 | 1012.6 |
| 20260505191404 | 79 | 263 | 7.0 | 13.0 | 0.00 | 0.00 | 0.00 | 32 | 1012.9 |
| 20260505190903 | 79 | 255 | 7.0 | 13.0 | 0.00 | 0.00 | 0.00 | 33 | 1012.9 |
| 20260505190403 | 79 | 166 | 6.0 | 12.0 | 0.00 | 0.00 | 0.00 | 33 | 1012.9 |
| 20260505185904 | 79 | 214 | 6.0 | 13.0 | 0.00 | 0.00 | 0.00 | 34 | 1012.9 |
| 20260505184903 | 77 | 161 | 6.0 | 13.0 | 0.00 | 0.00 | 0.00 | 38 | 1013.2 |
| 20260505184404 | 77 | 266 | 5.0 | 12.0 | 0.00 | 0.00 | 0.00 | 38 | 1013.4 |
| 20260505183904 | 77 | 190 | 6.0 | 12.0 | 0.00 | 0.00 | 0.00 | 39 | 1013.4 |
| 20260505183403 | 77 | 241 | 4.0 | 9.0 | 0.00 | 0.00 | 0.00 | 40 | 1013.5 |
| 20260505182904 | 77 | 229 | 6.0 | 12.0 | 0.00 | 0.00 | 0.00 | 40 | 1013.5 |
| 20260505182403 | 77 | 152 | 6.0 | 10.0 | 0.00 | 0.00 | 0.00 | 40 | 1013.5 |
| 20260505181903 | 76 | 218 | 6.0 | 13.0 | 0.00 | 0.00 | 0.00 | 39 | 1013.5 |
| 20260505180903 | 76 | 229 | 7.0 | 13.0 | 0.00 | 0.00 | 0.00 | 38 | 1013.5 |
| 20260505175904 | 77 | 167 | 7.0 | 14.0 | 0.00 | 0.00 | 0.00 | 36 | 1013.5 |
| 20260505175403 | 77 | 130 | 5.0 | 12.0 | 0.00 | 0.00 | 0.00 | 37 | 1013.8 |
| 20260505174903 | 77 | 160 | 6.0 | 12.0 | 0.00 | 0.00 | 0.00 | 37 | 1013.8 |
| 20260505174404 | 77 | 164 | 8.0 | 13.0 | 0.00 | 0.00 | 0.00 | 36 | 1014.1 |
| 20260505173903 | 77 | 155 | 7.0 | 14.0 | 0.00 | 0.00 | 0.00 | 38 | 1014.1 |
| 20260505173403 | 76 | 134 | 6.0 | 12.0 | 0.00 | 0.00 | 0.00 | 38 | 1014.1 |
| 20260505172904 | 76 | 208 | 5.0 | 10.0 | 0.00 | 0.00 | 0.00 | 39 | 1014.6 |
| 20260505172403 | 76 | 183 | 9.0 | 16.0 | 0.00 | 0.00 | 0.00 | 38 | 1014.6 |
| 20260505171904 | 76 | 220 | 6.0 | 12.0 | 0.00 | 0.00 | 0.00 | 41 | 1014.6 |
| 20260505170904 | 75 | 213 | 5.0 | 12.0 | 0.00 | 0.00 | 0.00 | 44 | 1014.6 |
| 20260505165404 | 74 | 258 | 5.0 | 12.0 | 0.00 | 0.00 | 0.00 | 43 | 1014.6 |
| 20260505164904 | 74 | 263 | 5.0 | 7.0 | 0.00 | 0.00 | 0.00 | 44 | 1014.6 |
| 20260505164404 | 74 | 226 | 2.0 | 6.0 | 0.00 | 0.00 | 0.00 | 46 | 1014.7 |
| 20260505163905 | 74 | 161 | 4.0 | 9.0 | 0.00 | 0.00 | 0.00 | 46 | 1014.7 |
| 20260505163404 | 74 | 258 | 4.0 | 7.0 | 0.00 | 0.00 | 0.00 | 45 | 1014.7 |
| 20260505162903 | 75 | 186 | 3.0 | 9.0 | 0.00 | 0.00 | 0.00 | 45 | 1014.4 |
| 20260505162404 | 75 | 137 | 3.0 | 7.0 | 0.00 | 0.00 | 0.00 | 45 | 1014.4 |
| 20260505161403 | 75 | 185 | 3.0 | 12.0 | 0.00 | 0.00 | 0.00 | 49 | 1014.6 |